Location: Im Fang
(46.6019°N, 7.2397°E)
Time: 08:21:52
(UTC+00:00)

CZ-4 R/B - Pass Details

Date: 08 December 2019
Orbit: 533 x 598 km, 97.7° (Epoch: 21 January)

Event Time Altitude Azimuth Distance (km) Brightness Sun altitude
Rises 06:15:03 0° 21° (NNE) 2,695 4.8 -7.9°
Reaches altitude 10° 06:17:18 10° 30° (NNE) 1,803 4.0 -7.5°
Maximum altitude 06:20:54 35° 98° (E) 885 3.2 -7.0°
Drops below altitude 10° 06:24:30 10° 165° (SSE) 1,811 4.6 -6.4°
Sets 06:26:46 0° 174° (S) 2,709 5.4 -6.1°
